Location: Poughquag
(41.6090°N, 73.6820°W)
Time: 14:10:58
(UTC-04:00)

ISS - Pass Details

Date: 23 May 2019
Orbit: 410 x 420 km, 51.6° (Epoch: 20 August)

Event Time Altitude Azimuth Distance (km) Brightness Sun altitude
Rises 00:24:44 0° 308° (NW) 2,374 0.7 -27.6°
Reaches altitude 10° 00:27:12 10° 326° (NW) 1,511 -0.2 -27.6°
Maximum altitude 00:29:49 20° 16° (NNE) 1,038 -1.1 -27.7°
Enters shadow 00:29:50 20° 16° (NNE) 1,038 -1.1 -27.7°
